Location: Mercogliano
(40.9167°N, 14.7333°E)
Time: 14:53:10
(UTC+00:00)

NOSS 2-2 (C) - Pass Details

Date: 18 September 2020
Orbit: 468 x 1740 km, 63.3° (Epoch: 19 October)

Event Time Altitude Azimuth Distance (km) Brightness Sun altitude
Rises 18:13:48 0° 215° (SW) 2,538 7.0 -13.8°
Reaches altitude 10° 18:15:54 10° 216° (SW) 1,627 6.0 -14.2°
Maximum altitude 18:19:23 83° 305° (NW) 482 3.0 -14.8°
Drops below altitude 10° 18:23:06 10° 33° (NNE) 1,733 5.7 -15.5°
Sets 18:25:25 0° 35° (NE) 2,725 6.7 -15.9°
